Time,TemperatureF,DewpointF,PressureIn,WindDirection,WindDirectionDegrees,WindSpeedMPH,WindSpeedGustMPH,Humidity,HourlyPrecipIn,Conditions,Clouds,dailyrainin,SoftwareType,DateUTC
2013-08-25 00:29:00,66.8,51.5,29.87,NNE,19,1.0,9.0,58,0.00,CLR,,0.00,WeatherDisplay:10.37,2013-08-25 05:29:00,
2013-08-25 00:59:00,64.6,51.7,29.88,NNE,27,0.0,4.0,63,0.00,CLR,,0.00,WeatherDisplay:10.37,2013-08-25 05:59:00,
2013-08-25 01:29:00,59.6,51.0,29.91,NNE,27,0.0,2.0,73,0.00,CLR,,0.00,WeatherDisplay:10.37,2013-08-25 06:29:00,
2013-08-25 01:59:00,56.9,50.8,29.91,NNE,27,0.0,2.0,80,0.00,CLR,,0.00,WeatherDisplay:10.37,2013-08-25 06:59:00,
2013-08-25 02:29:00,55.7,50.9,29.92,NNE,27,0.0,3.0,84,0.00,CLR,,0.00,WeatherDisplay:10.37,2013-08-25 07:29:00,
2013-08-25 02:59:00,55.1,51.3,29.92,NNE,27,0.0,3.0,87,0.00,CLR,,0.00,WeatherDisplay:10.37,2013-08-25 07:59:00,
2013-08-25 03:29:00,54.7,50.9,29.92,NNE,27,1.0,5.0,87,0.00,CLR,,0.00,WeatherDisplay:10.37,2013-08-25 08:29:00,
2013-08-25 03:59:00,54.8,51.3,29.92,North,8,0.0,6.0,88,0.00,CLR,,0.00,WeatherDisplay:10.37,2013-08-25 08:59:00,
2013-08-25 04:29:00,54.1,50.9,29.92,North,8,0.0,2.0,89,0.00,CLR,,0.00,WeatherDisplay:10.37,2013-08-25 09:29:00,
2013-08-25 04:59:00,53.5,50.6,29.92,North,8,0.0,3.0,90,0.00,CLR,,0.00,WeatherDisplay:10.37,2013-08-25 09:59:00,
2013-08-25 05:29:00,53.2,50.6,29.94,North,8,0.0,3.0,91,0.00,CLR,,0.00,WeatherDisplay:10.37,2013-08-25 10:29:00,
2013-08-25 05:59:00,53.1,50.8,29.95,North,8,0.0,3.0,92,0.00,CLR,,0.00,WeatherDisplay:10.37,2013-08-25 10:59:00,
2013-08-25 06:30:00,52.3,50.0,29.96,North,8,0.0,3.0,92,0.00,CLR,,0.00,WeatherDisplay:10.37,2013-08-25 11:30:00,
2013-08-25 06:59:00,51.6,49.6,29.97,North,8,0.0,0.0,93,0.00,CLR,,0.00,WeatherDisplay:10.37,2013-08-25 11:59:00,
2013-08-25 07:30:00,51.2,49.2,30.00,North,8,0.0,2.0,93,0.00,CLR,,0.00,WeatherDisplay:10.37,2013-08-25 12:30:00,
2013-08-25 08:00:00,51.1,49.4,30.01,North,8,0.0,1.0,94,0.00,CLR,,0.00,WeatherDisplay:10.37,2013-08-25 13:00:00,
2013-08-25 08:30:00,60.5,57.8,29.96,ESE,106,3.0,10.0,91,0.00,CLR,,0.00,WeatherDisplay:10.37,2013-08-25 13:30:00,
2013-08-25 09:00:00,67.3,54.7,29.93,SE,133,3.0,13.0,64,0.00,CLR,,0.00,WeatherDisplay:10.37,2013-08-25 14:00:00,
2013-08-25 09:30:00,69.9,54.4,29.92,ESE,115,5.0,14.0,58,0.00,CLR,,0.00,WeatherDisplay:10.37,2013-08-25 14:30:00,
2013-08-25 10:00:00,71.7,55.2,29.92,ENE,66,2.0,12.0,56,0.00,CLR,,0.00,WeatherDisplay:10.37,2013-08-25 15:00:00,
2013-08-25 10:30:00,72.1,55.5,29.93,ENE,68,3.0,14.0,56,0.00,CLR,,0.00,WeatherDisplay:10.37,2013-08-25 15:30:00,
2013-08-25 11:00:00,73.1,54.4,29.95,SE,138,7.0,14.0,52,0.00,CLR,,0.00,WeatherDisplay:10.37,2013-08-25 16:00:00,
2013-08-25 11:30:00,73.8,55.5,29.94,ESE,118,3.0,17.0,53,0.00,CLR,,0.00,WeatherDisplay:10.37,2013-08-25 16:30:00,
2013-08-25 12:00:00,75.3,55.4,29.93,SE,136,3.0,16.0,50,0.00,CLR,,0.00,WeatherDisplay:10.37,2013-08-25 17:00:00,
2013-08-25 12:30:00,76.4,55.2,29.95,SE,135,0.0,13.0,48,0.00,CLR,,0.00,WeatherDisplay:10.37,2013-08-25 17:30:00,
2013-08-25 13:00:00,76.8,54.5,29.93,ESE,109,3.0,18.0,46,0.00,CLR,,0.00,WeatherDisplay:10.37,2013-08-25 18:00:00,
2013-08-25 13:30:00,76.8,53.8,29.96,SSE,165,5.0,14.0,45,0.00,CLR,,0.00,WeatherDisplay:10.37,2013-08-25 18:30:00,
2013-08-25 14:00:00,75.8,54.7,29.96,South,170,0.0,13.0,48,0.00,CLR,,0.00,WeatherDisplay:10.37,2013-08-25 19:00:00,
2013-08-25 14:30:00,75.8,53.5,29.97,SE,131,3.0,12.0,46,0.00,CLR,,0.00,WeatherDisplay:10.37,2013-08-25 19:30:00,
2013-08-25 15:00:00,75.8,52.9,29.96,East,99,6.0,12.0,45,0.00,CLR,,0.00,WeatherDisplay:10.37,2013-08-25 20:00:00,
2013-08-25 15:30:00,77.9,54.2,29.94,ESE,114,6.0,16.0,44,0.00,CLR,,0.00,WeatherDisplay:10.37,2013-08-25 20:30:00,
2013-08-25 16:00:00,77.2,53.0,29.94,East,83,1.0,12.0,43,0.00,CLR,,0.00,WeatherDisplay:10.37,2013-08-25 21:00:00,
2013-08-25 16:30:00,74.6,55.3,29.95,ESE,113,2.0,13.0,51,0.00,CLR,,0.00,WeatherDisplay:10.37,2013-08-25 21:30:00,
2013-08-25 17:00:00,75.0,53.4,29.94,East,85,5.0,13.0,47,0.00,CLR,,0.00,WeatherDisplay:10.37,2013-08-25 22:00:00,
2013-08-25 17:30:00,73.9,54.1,29.96,ESE,106,2.0,14.0,50,0.00,CLR,,0.00,WeatherDisplay:10.37,2013-08-25 22:30:00,
2013-08-25 18:00:00,73.9,52.4,29.96,East,93,2.0,12.0,47,0.00,CLR,,0.00,WeatherDisplay:10.37,2013-08-25 23:00:00,
2013-08-25 18:30:00,73.3,54.1,29.95,ESE,118,2.0,8.0,51,0.00,CLR,,0.00,WeatherDisplay:10.37,2013-08-25 23:30:00,
2013-08-25 19:00:00,73.5,54.3,29.94,East,81,1.0,8.0,51,0.00,CLR,,0.00,WeatherDisplay:10.37,2013-08-26 00:00:00,
2013-08-25 19:30:00,73.7,53.9,29.91,ESE,111,1.0,10.0,50,0.00,CLR,,0.00,WeatherDisplay:10.37,2013-08-26 00:30:00,
2013-08-25 20:00:00,72.3,53.7,29.92,ENE,76,0.0,7.0,52,0.00,CLR,,0.00,WeatherDisplay:10.37,2013-08-26 01:00:00,
2013-08-25 23:29:00,67.9,51.6,29.90,NE,55,1.0,12.0,56,0.00,CLR,,0.00,WeatherDisplay:10.37,2013-08-26 04:29:00,
2013-08-25 23:59:00,67.9,52.1,29.90,ENE,76,3.0,12.0,57,0.00,CLR,,0.00,WeatherDisplay:10.37,2013-08-26 04:59:00,